{"data":{"norad_id":37218,"intl_designator":"2010-061A","name":"SKYTERRA 1","alt_names":[],"object_type":"PAYLOAD","status":"ACTIVE","operator":null,"country":"US","launch_date":"2010-11-14","launch_site_code":"TYMSC","launch_vehicle":null,"mission":null,"orbit_class":"UNKNOWN","rcs_meters":0.003,"size_class":null,"mass_kg":null,"dimensions":null,"purposes":["comms"],"wikipedia_slug":null,"has_3d_model":false,"image_url":null,"decayed_at":null,"tle_current":{"epoch":"2026-05-25T03:51:46.665792Z","epoch_age_seconds":71866,"freshness":"FRESH","line1":"1 37218U 10061A   26145.16095678 -.00000121  00000+0  00000+0 0  9992","line2":"2 37218   5.0786  50.8806 0003105  13.5075 135.0102  1.00272762 56961","mean_motion":1.00272762,"eccentricity":0.0003105,"inclination_deg":5.0786,"raan_deg":50.8806,"arg_perigee_deg":13.5075,"mean_anomaly_deg":135.0102,"bstar":0,"rev_number":5696,"period_min":1436.0829115289,"perigee_km":35773.229010616,"apogee_km":35799.413139081,"semimajor_km":42164.458074848,"source":"CELESTRAK","updated_at":"2026-05-25T13:38:13.896455Z"}}}